Weather History for White Mountain, AK

Change the Weather History Date:

Monday, December 30, 2013

  Actual Average (PAKK) Record (PAKK)
Temperature  
Mean Temperature 16 °F -  
Max Temperature 17 °F 6 °F 39 °F (2014)
Min Temperature 14 °F 0 °F -25 °F (1999)
Degree Days  
Heating Degree Days 50    
Moisture  
Dew Point 11 °F    
Average Humidity 83    
Maximum Humidity 88    
Minimum Humidity 77    
Precipitation  
Precipitation 0.00 in - - ()
Sea Level Pressure  
Sea Level Pressure 29.63 in    
Wind  
Wind Speed 8 mph (North)    
Max Wind Speed 10 mph    
Max Gust Speed -    
Visibility 10 miles    
Events      
Averages and records for this station are not official NWS values.
T = Trace of Precipitation, MM = Missing Value Source: NWS Daily Summary

Daily Weather History Graph

Daily Weather History Graph

Search for Another Location

Airport:

Trip Planner

Search our weather history database for the weather conditions in past years. The results will help you decide how hot, cold, wet, or windy it might be!

Date:

Astronomy

Dec. 30, 2013 Rise Set
Actual Time 11:56 AM AKST 3:57 PM AKST
Civil Twilight 10:34 AM AKST 5:18 PM AKST
Nautical Twilight 9:24 AM AKST 6:29 PM AKST
Astronomical Twilight 8:23 AM AKST 7:30 PM AKST
Moon 9:29 AM AKST 3:11 PM AKST
Length of Visible Light 6h 44m
Length of Day
4h 01m
Waning Crescent, 4% of the Moon is Illuminated
Dec 30
Waning Crescent
Jan 1
New
Jan 7
First Quarter
Jan 15
Full
Jan 23
Last Quarter

Hourly Weather History & Observations

Time (AKST) Temp. Windchill Dew Point Humidity Pressure Visibility Wind Dir Wind Speed Gust Speed Precip Events Conditions
12:58 AM 15.1 °F 3.3 °F 10.9 °F 84% 29.70 in 10.0 mi North 9.2 mph - N/A   Overcast
1:58 AM 15.1 °F 5.2 °F 12.0 °F 88% 29.69 in 10.0 mi North 6.9 mph - N/A   Overcast
2:58 AM 14.0 °F 2.9 °F 10.9 °F 88% 29.68 in 10.0 mi North 8.1 mph - N/A   Overcast
3:58 AM 15.1 °F 3.3 °F 12.0 °F 88% 29.67 in 10.0 mi North 9.2 mph - N/A   Overcast
4:58 AM 16.0 °F 5.3 °F 12.0 °F 84% 29.69 in 10.0 mi NNE 8.1 mph - N/A   Overcast
5:58 AM 15.1 °F 3.3 °F 10.9 °F 84% 29.67 in 10.0 mi North 9.2 mph - N/A   Mostly Cloudy
6:58 AM 16.0 °F 6.3 °F 12.0 °F 84% 29.65 in 10.0 mi NNW 6.9 mph - N/A   Overcast
7:58 AM 15.1 °F 2.5 °F 10.9 °F 84% 29.64 in 10.0 mi North 10.4 mph - N/A   Clear
8:58 AM 15.1 °F 2.5 °F 10.9 °F 84% 29.62 in 10.0 mi North 10.4 mph - N/A   Scattered Clouds
9:58 AM 14.0 °F 2.0 °F 10.0 °F 84% 29.62 in 10.0 mi North 9.2 mph - N/A   Scattered Clouds
10:58 AM 14.0 °F 2.0 °F 10.0 °F 84% 29.62 in 10.0 mi North 9.2 mph - N/A   Mostly Cloudy
11:58 AM 15.1 °F 2.5 °F 10.9 °F 84% 29.62 in 10.0 mi North 10.4 mph - N/A   Mostly Cloudy
12:58 PM 15.1 °F 3.3 °F 10.0 °F 80% 29.61 in 10.0 mi North 9.2 mph - N/A   Mostly Cloudy
1:58 PM 15.1 °F 2.5 °F 10.0 °F 80% 29.60 in 10.0 mi North 10.4 mph - N/A   Scattered Clouds
2:58 PM 16.0 °F 5.3 °F 10.9 °F 81% 29.60 in 10.0 mi North 8.1 mph - N/A   Overcast
3:58 PM 15.1 °F 5.2 °F 10.0 °F 80% 29.59 in 10.0 mi North 6.9 mph - N/A   Mostly Cloudy
4:58 PM 16.0 °F 6.3 °F 10.9 °F 81% 29.59 in 10.0 mi North 6.9 mph - N/A   Overcast
5:58 PM 15.1 °F 4.2 °F 10.0 °F 80% 29.59 in 10.0 mi North 8.1 mph - N/A   Overcast
6:58 PM 14.0 °F 2.0 °F 10.0 °F 84% 29.58 in 10.0 mi North 9.2 mph - N/A   Mostly Cloudy
7:58 PM 15.1 °F 5.2 °F 10.0 °F 80% 29.59 in 10.0 mi North 6.9 mph - N/A   Overcast
8:58 PM 15.1 °F 3.3 °F 10.0 °F 80% 29.59 in 10.0 mi North 9.2 mph - N/A   Overcast
9:58 PM 17.1 °F 7.6 °F 10.9 °F 77% 29.60 in 10.0 mi North 6.9 mph - N/A   Overcast
10:58 PM 15.1 °F 7.7 °F 10.0 °F 80% 29.60 in 10.0 mi North 4.6 mph - N/A   Partly Cloudy
11:58 PM 15.1 °F 5.2 °F 10.0 °F 80% 29.61 in 10.0 mi North 6.9 mph - N/A   Clear